Location: Newark
(16.3678°N, 77.8722°E)
Time: 02:21:31
(UTC+00:00)

SR - Visible Passes

Search period start: 07 December 2019 00:00
Search period end: 17 December 2019 00:00
Orbit: 573 x 882 km, 66.7° (Epoch: 06 December)

Date Brightness Start Highest point End Pass type
(mag) Time Alt. Az. Time Alt. Az. Time Alt. Az.
10 Dec ? 13:50:52 10° N 13:54:04 31° NNE 13:54:04 31° NNE visible
11 Dec ? 13:02:19 10° NNE 13:06:25 21° ENE 13:10:16 10° ESE visible
11 Dec ? 14:43:39 10° NW 14:48:24 30° WSW 14:52:50 10° SSW visible
12 Dec ? 13:53:24 10° NNW 13:58:57 77° WSW 14:04:01 10° SSE visible
13 Dec ? 13:04:00 10° N 13:09:17 44° ENE 13:14:10 10° SE visible
13 Dec ? 14:48:27 10° WNW 14:50:49 13° WSW 14:53:07 10° SW visible
14 Dec ? 13:56:38 10° NW 14:01:29 33° WSW 14:05:59 10° S visible
15 Dec ? 13:06:28 10° NNW 13:12:01 83° WSW 13:17:04 10° SSE visible
16 Dec ? 14:01:11 10° WNW 14:03:54 14° WSW 14:06:31 10° SW visible
